TimeEDT,TemperatureF,Dew PointF,Humidity,Sea Level PressureIn,VisibilityMPH,Wind Direction,Wind SpeedMPH,Gust SpeedMPH,PrecipitationIn,Events,Conditions,WindDirDegrees,DateUTC
12:15 AM,70.9,69.1,94,29.90,7.0,Calm,Calm,-,N/A,,Clear,0,2013-09-01 04:15:00
12:35 AM,70.7,68.9,94,29.90,5.0,Calm,Calm,-,N/A,,Scattered Clouds,0,2013-09-01 04:35:00
12:55 AM,70.2,68.5,95,29.91,5.0,Calm,Calm,-,N/A,,Scattered Clouds,0,2013-09-01 04:55:00
1:15 AM,70.5,69.1,95,29.91,7.0,Calm,Calm,-,N/A,,Clear,0,2013-09-01 05:15:00
1:35 AM,69.8,68.4,95,29.91,5.0,Calm,Calm,-,N/A,,Clear,0,2013-09-01 05:35:00
1:55 AM,69.4,68.2,96,29.90,7.0,Calm,Calm,-,N/A,,Clear,0,2013-09-01 05:55:00
2:15 AM,69.8,68.5,96,29.90,5.0,Calm,Calm,-,N/A,,Clear,0,2013-09-01 06:15:00
2:35 AM,69.3,68.0,96,29.89,5.0,Calm,Calm,-,N/A,,Clear,0,2013-09-01 06:35:00
2:55 AM,68.9,67.8,96,29.89,7.0,Calm,Calm,-,N/A,,Clear,0,2013-09-01 06:55:00
3:35 AM,69.8,68.4,95,29.88,7.0,Calm,Calm,-,N/A,,Clear,0,2013-09-01 07:35:00
3:55 AM,68.9,67.3,95,29.88,7.0,Calm,Calm,-,N/A,,Clear,0,2013-09-01 07:55:00
4:15 AM,68.9,67.5,95,29.88,5.0,Calm,Calm,-,N/A,,Clear,0,2013-09-01 08:15:00
4:35 AM,68.9,67.5,95,29.88,5.0,Calm,Calm,-,N/A,,Clear,0,2013-09-01 08:35:00
4:55 AM,68.0,66.7,96,29.88,10.0,Calm,Calm,-,N/A,,Clear,0,2013-09-01 08:55:00
5:15 AM,67.6,66.4,96,29.88,7.0,Calm,Calm,-,N/A,,Clear,0,2013-09-01 09:15:00
5:35 AM,68.0,66.7,96,29.88,5.0,Calm,Calm,-,N/A,,Clear,0,2013-09-01 09:35:00
5:55 AM,68.0,66.7,96,29.88,7.0,Calm,Calm,-,N/A,,Clear,0,2013-09-01 09:55:00
6:15 AM,67.3,66.2,96,29.89,7.0,Calm,Calm,-,N/A,,Clear,0,2013-09-01 10:15:00
6:35 AM,67.8,66.7,96,29.89,5.0,Calm,Calm,-,N/A,,Clear,0,2013-09-01 10:35:00
6:55 AM,67.1,65.8,96,29.89,3.0,Calm,Calm,-,N/A,,Clear,0,2013-09-01 10:55:00
7:15 AM,67.6,66.7,97,29.90,4.0,Calm,Calm,-,N/A,,Clear,0,2013-09-01 11:15:00
7:35 AM,67.8,66.6,96,29.90,4.0,Calm,Calm,-,N/A,,Clear,0,2013-09-01 11:35:00
7:55 AM,69.8,68.7,96,29.90,4.0,Calm,Calm,-,N/A,,Clear,0,2013-09-01 11:55:00
8:15 AM,72.5,71.1,95,29.91,7.0,SSW,3.5,-,N/A,,Clear,200,2013-09-01 12:15:00
8:35 AM,74.7,71.1,88,29.91,10.0,SW,5.8,-,N/A,,Clear,220,2013-09-01 12:35:00
8:55 AM,76.1,70.9,84,29.91,10.0,SW,9.2,-,N/A,,Clear,220,2013-09-01 12:55:00
9:15 AM,77.2,71.4,82,29.92,10.0,WSW,6.9,-,N/A,,Scattered Clouds,240,2013-09-01 13:15:00
9:35 AM,78.6,71.4,78,29.92,10.0,WSW,8.1,-,N/A,,Clear,250,2013-09-01 13:35:00
9:55 AM,79.7,71.6,76,29.92,10.0,WSW,4.6,-,N/A,,Clear,240,2013-09-01 13:55:00
10:15 AM,81.0,71.8,74,29.91,10.0,SSW,6.9,-,N/A,,Clear,210,2013-09-01 14:15:00
10:35 AM,82.6,72.3,71,29.92,10.0,WSW,4.6,-,N/A,,Clear,250,2013-09-01 14:35:00
10:55 AM,83.5,72.0,68,29.92,10.0,WSW,6.9,-,N/A,,Clear,240,2013-09-01 14:55:00
11:15 AM,84.2,72.0,67,29.91,10.0,WSW,9.2,-,N/A,,Clear,240,2013-09-01 15:15:00
11:35 AM,85.8,72.1,63,29.91,10.0,WSW,10.4,-,N/A,,Scattered Clouds,250,2013-09-01 15:35:00
11:55 AM,85.3,72.0,64,29.90,10.0,SW,9.2,-,N/A,,Scattered Clouds,220,2013-09-01 15:55:00
12:15 PM,86.5,72.1,62,29.90,10.0,SW,8.1,-,N/A,,Scattered Clouds,230,2013-09-01 16:15:00
12:35 PM,85.8,72.0,63,29.88,10.0,West,9.2,-,N/A,,Scattered Clouds,260,2013-09-01 16:35:00
12:55 PM,88.3,71.4,57,29.88,10.0,WSW,6.9,-,N/A,,Scattered Clouds,240,2013-09-01 16:55:00
1:15 PM,88.3,71.4,57,29.87,10.0,SSW,9.2,-,N/A,,Scattered Clouds,210,2013-09-01 17:15:00
1:35 PM,87.8,70.9,57,29.87,10.0,SW,9.2,-,N/A,Rain,Light Rain,230,2013-09-01 17:35:00
1:55 PM,88.2,71.4,57,29.86,10.0,WSW,9.2,-,N/A,,Scattered Clouds,240,2013-09-01 17:55:00
2:15 PM,89.4,71.2,55,29.86,10.0,SW,8.1,-,N/A,,Scattered Clouds,230,2013-09-01 18:15:00
2:35 PM,88.3,72.0,58,29.85,10.0,SSW,8.1,16.1,N/A,,Clear,200,2013-09-01 18:35:00
2:55 PM,88.2,72.1,59,29.84,10.0,WSW,6.9,-,N/A,,Clear,240,2013-09-01 18:55:00
3:15 PM,90.0,70.3,52,29.83,10.0,SW,8.1,-,N/A,,Scattered Clouds,220,2013-09-01 19:15:00
3:35 PM,90.3,69.4,50,29.81,10.0,WSW,6.9,-,N/A,,Scattered Clouds,240,2013-09-01 19:35:00
3:55 PM,90.9,70.0,50,29.81,10.0,SW,8.1,-,N/A,,Scattered Clouds,220,2013-09-01 19:55:00
4:15 PM,91.2,69.4,49,29.80,10.0,SW,10.4,-,N/A,,Scattered Clouds,220,2013-09-01 20:15:00
4:35 PM,90.9,68.9,48,29.79,10.0,SW,9.2,-,N/A,,Scattered Clouds,220,2013-09-01 20:35:00
4:55 PM,91.4,69.3,48,29.78,10.0,South,10.4,-,N/A,,Scattered Clouds,190,2013-09-01 20:55:00
5:15 PM,88.3,70.7,56,29.79,10.0,South,8.1,-,N/A,,Scattered Clouds,190,2013-09-01 21:15:00
5:35 PM,87.6,71.4,58,29.79,10.0,South,5.8,-,N/A,,Scattered Clouds,180,2013-09-01 21:35:00
5:55 PM,86.9,70.9,59,29.80,10.0,SSW,6.9,-,N/A,,Clear,200,2013-09-01 21:55:00
6:15 PM,86.0,70.7,60,29.79,10.0,South,8.1,-,N/A,,Scattered Clouds,190,2013-09-01 22:15:00
6:35 PM,86.9,70.7,58,29.81,10.0,SSW,5.8,-,N/A,,Scattered Clouds,200,2013-09-01 22:35:00
6:55 PM,85.5,70.9,62,29.81,10.0,South,3.5,-,N/A,,Mostly Cloudy,180,2013-09-01 22:55:00
7:15 PM,83.7,71.8,67,29.83,10.0,NW,5.8,-,N/A,,Mostly Cloudy,310,2013-09-01 23:15:00
7:35 PM,78.6,68.9,72,29.84,10.0,North,10.4,16.1,N/A,,Overcast,350,2013-09-01 23:35:00
7:55 PM,76.3,69.3,79,29.87,2.5,North,4.6,10.4,0.17,Rain,Heavy Rain,350,2013-09-01 23:55:00
8:15 PM,72.7,70.5,93,29.87,7.0,NNW,8.1,-,0.30,Rain,Light Rain,330,2013-09-02 00:15:00
8:35 PM,72.5,70.7,94,29.88,2.5,NW,4.6,-,0.65,Rain,Heavy Rain,310,2013-09-02 00:35:00
8:55 PM,72.5,70.0,92,29.88,10.0,SW,6.9,-,0.70,Rain,Light Rain,230,2013-09-02 00:55:00
9:15 PM,72.3,68.7,88,29.88,10.0,South,3.5,-,N/A,Rain,Rain,170,2013-09-02 01:15:00
9:35 PM,71.8,68.7,90,29.87,10.0,South,3.5,-,0.01,Rain,Light Rain,190,2013-09-02 01:35:00
9:55 PM,71.1,69.3,94,29.87,7.0,South,4.6,-,0.02,,Clear,190,2013-09-02 01:55:00
10:15 PM,70.7,69.1,95,29.87,10.0,Calm,Calm,-,N/A,,Clear,0,2013-09-02 02:15:00
10:35 PM,70.5,68.7,94,29.87,10.0,Calm,Calm,-,N/A,,Clear,0,2013-09-02 02:35:00
10:55 PM,69.4,67.8,95,29.88,7.0,Calm,Calm,-,N/A,,Clear,0,2013-09-02 02:55:00
11:15 PM,69.1,67.6,95,29.88,3.0,Calm,Calm,-,N/A,,Clear,0,2013-09-02 03:15:00
11:35 PM,69.3,68.2,96,29.88,4.0,Calm,Calm,-,N/A,,Clear,0,2013-09-02 03:35:00
11:55 PM,68.5,67.5,96,29.88,1.2,Calm,Calm,-,N/A,,Mist,0,2013-09-02 03:55:00